Weather in Peschanokoledino

Russia / Kurgan Oblast     55°54′38″N   62°49′25″E
temp.,
°C
wind,
m/s
gust,
m/s
humid.,
%
clouds,
%
prec.,
mm/h
press.,
hPa
HPBL,
m
14 june, mon
mon1423:00+17sse34620 0.0 102243
02:00+15s35611 0.0 102251
05:00+14s476110 0.0 102399
08:00+20ssw4105590 0.0 1023308
11:00+24ssw6104598 0.0 1022621
14:00+25sw694232 0.0 1021967
17:00+27ssw584258 0.0 10201549
20:00+22ssw496187 0.0 1019155
15 june, tue
tue1523:00+19ssw4856100 0.0 1019120
02:00+17ssw485759 0.0 1018122
05:00+16sw496451 0.0 1018128
08:00+21sw51059100 0.0 1017279
11:00+26sw674494 0.0 1016654
14:00+28wsw573999 0.0 10151078
17:00+25ssw2452100 0.0 1015168
20:00+20n358186 0.3 1015176
16 june, wed
wed1623:00+17s228654 0.9 101522
02:00+17ssw238736 0.0 101522
05:00+17wsw358682 0.0 101585
08:00+22w4106650 0.0 1015474
11:00+23w595968 0.0 1014720
14:00+24w366055 0.0 1014447
17:00+28sw354770 0.0 10121115
20:00+21wnw397577 0.1 1011272
17 june, thu
thu1723:00+18wsw36845 0.1 101284
02:00+16sw46839 0.0 101073
05:00+16ssw488627 0.0 1009150
08:00+21ssw596578 0.0 1007324
11:00+25sw5957100 0.0 1005781
14:00+25ssw5860100 0.0 1003672
17:00+28ssw51048100 0.0 9991953
20:00+17w4895100 3.0 1003461
18 june, fri
fri1823:00+12nnw91689100 15.4 1006767
02:00+8nnw715824 0.0 1009845
05:00+8nnw714760 0.0 1011822
08:00+11nnw913605 0.0 10121148
11:00+14nnw912455 0.0 10131607
14:00+16n912365 0.0 10132177
17:00+18nnw6123957 0.0 10133026
20:00+15nw366043 0.0 1013140